CFI490 ZUCK-ZSSS

Flight info

Callsign CFI490
Flight time 1h 52m
Altitude 44900
Route GUVIV V156 UXAXU V154 SNF W269 OLPOV B213 WHA R343 PK
Aircraft C750/M-SBDE3FGHRWXY/S

Departure

Time 2026-04-22 13:40
Airport Chongqing Jiangbei International Airport (ZUCK)

Arrival

Time 2026-04-22 15:32
Airport Shanghai Hongqiao International Airport (ZSSS)
Time Latitude Longitude Altitude Speed Heading
2026-04-22 13:02 29.71341 106.63500 1368 ft 0 kts 197°
2026-04-22 13:24 29.71339 106.63499 1368 ft 0 kts 197°
2026-04-22 13:24 29.71339 106.63500 1368 ft 0 kts 197°
2026-04-22 13:25 29.71353 106.63504 1368 ft 2 kts 197°
2026-04-22 13:25 29.71368 106.63509 1368 ft 2 kts 197°
2026-04-22 13:26 29.71382 106.63513 1368 ft 2 kts 181°
2026-04-22 13:26 29.71397 106.63509 1368 ft 2 kts 150°
2026-04-22 13:26 29.71408 106.63497 1368 ft 2 kts 121°
2026-04-22 13:26 29.71413 106.63480 1368 ft 2 kts 107°
2026-04-22 13:27 29.71414 106.63476 1368 ft 0 kts 107°
2026-04-22 13:29 29.71414 106.63477 1368 ft 0 kts 107°
2026-04-22 13:29 29.71409 106.63493 1368 ft 4 kts 107°
2026-04-22 13:29 29.71399 106.63532 1368 ft 5 kts 107°
2026-04-22 13:29 29.71389 106.63570 1368 ft 4 kts 107°
2026-04-22 13:30 29.71382 106.63596 1368 ft 0 kts 107°
2026-04-22 13:30 29.71380 106.63602 1368 ft 0 kts 107°
2026-04-22 13:30 29.71378 106.63611 1368 ft 1 kts 107°
2026-04-22 13:30 29.71370 106.63640 1368 ft 5 kts 107°
2026-04-22 13:31 29.71358 106.63686 1368 ft 6 kts 107°
2026-04-22 13:31 29.71335 106.63730 1368 ft 6 kts 157°
2026-04-22 13:31 29.71292 106.63724 1368 ft 6 kts 195°
2026-04-22 13:31 29.71251 106.63711 1368 ft 5 kts 197°
2026-04-22 13:32 29.71213 106.63697 1368 ft 5 kts 197°
2026-04-22 13:32 29.71176 106.63685 1368 ft 5 kts 197°
2026-04-22 13:32 29.71142 106.63673 1368 ft 5 kts 197°
2026-04-22 13:32 29.71102 106.63658 1368 ft 7 kts 197°
2026-04-22 13:33 29.71032 106.63634 1368 ft 13 kts 197°
2026-04-22 13:33 29.70922 106.63596 1368 ft 19 kts 197°
2026-04-22 13:33 29.70776 106.63546 1367 ft 23 kts 197°
2026-04-22 13:33 29.70636 106.63497 1367 ft 15 kts 198°
2026-04-22 13:34 29.70571 106.63516 1367 ft 8 kts 114°
2026-04-22 13:34 29.70559 106.63560 1367 ft 4 kts 107°
2026-04-22 13:34 29.70558 106.63561 1367 ft 0 kts 107°
2026-04-22 13:37 29.70557 106.63566 1367 ft 3 kts 107°
2026-04-22 13:37 29.70538 106.63638 1367 ft 11 kts 107°
2026-04-22 13:37 29.70516 106.63724 1367 ft 10 kts 107°
2026-04-22 13:38 29.70493 106.63808 1368 ft 10 kts 107°
2026-04-22 13:38 29.70486 106.63969 1368 ft 0 kts 90°
2026-04-22 13:38 29.70486 106.63968 1368 ft 0 kts 90°
2026-04-22 13:39 29.70486 106.63969 1368 ft 0 kts 90°
2026-04-22 13:39 29.70483 106.64048 1368 ft 20 kts 82°
2026-04-22 13:39 29.70570 106.64101 1368 ft 16 kts 18°
2026-04-22 13:40 29.70925 106.64226 1368 ft 96 kts 16°
2026-04-22 13:40 29.71812 106.64533 1403 ft 163 kts 15°
2026-04-22 13:40 29.72892 106.64830 2347 ft 160 kts
2026-04-22 13:40 29.73958 106.65092 3397 ft 159 kts 13°
2026-04-22 13:41 29.74984 106.65438 4454 ft 151 kts 18°
2026-04-22 13:41 29.75950 106.65781 5318 ft 150 kts 17°
2026-04-22 13:41 29.76965 106.66137 6030 ft 159 kts 17°
2026-04-22 13:41 29.78032 106.66511 6857 ft 161 kts 17°
2026-04-22 13:42 29.79102 106.66887 7653 ft 164 kts 17°
2026-04-22 13:42 29.80205 106.67274 8414 ft 169 kts 17°
2026-04-22 13:42 29.81433 106.67703 8777 ft 196 kts 17°
2026-04-22 13:42 29.82800 106.68185 9417 ft 208 kts 17°
2026-04-22 13:43 29.84242 106.68690 10115 ft 224 kts 16°
2026-04-22 13:43 29.85772 106.69229 10786 ft 243 kts 16°
2026-04-22 13:43 29.87497 106.69833 11339 ft 265 kts 16°
2026-04-22 13:43 29.89237 106.70448 12483 ft 262 kts 15°
2026-04-22 13:44 29.90985 106.71062 13506 ft 262 kts 15°
2026-04-22 13:44 29.92736 106.71677 14397 ft 266 kts 14°
2026-04-22 13:44 29.94535 106.72308 15219 ft 272 kts 14°
2026-04-22 13:44 29.96353 106.72948 16017 ft 277 kts 14°
2026-04-22 13:45 29.98244 106.73614 16814 ft 282 kts 14°
2026-04-22 13:45 30.00135 106.74279 17574 ft 287 kts 14°
2026-04-22 13:45 30.02073 106.74963 18358 ft 290 kts 13°
2026-04-22 13:45 30.04013 106.75650 19132 ft 293 kts 13°
2026-04-22 13:46 30.05983 106.76344 19873 ft 296 kts 12°
2026-04-22 13:46 30.08029 106.77058 19933 ft 324 kts 12°
2026-04-22 13:46 30.10319 106.77864 20061 ft 348 kts 13°
2026-04-22 13:46 30.12680 106.78706 20636 ft 356 kts 13°
2026-04-22 13:47 30.14996 106.79763 21360 ft 363 kts 22°
2026-04-22 13:47 30.17193 106.81304 22086 ft 369 kts 30°
2026-04-22 13:47 30.19201 106.83265 22678 ft 380 kts 40°
2026-04-22 13:47 30.21004 106.85551 23222 ft 388 kts 43°
2026-04-22 13:48 30.22954 106.87873 23219 ft 409 kts 41°
2026-04-22 13:48 30.24989 106.90236 23581 ft 419 kts 40°
2026-04-22 13:48 30.27092 106.92650 24079 ft 425 kts 40°
2026-04-22 13:48 30.29219 106.95087 24546 ft 431 kts 40°
2026-04-22 13:49 30.31385 106.97563 25049 ft 437 kts 40°
2026-04-22 13:49 30.33593 107.00094 25548 ft 442 kts 40°
2026-04-22 13:49 30.35817 107.02636 25973 ft 448 kts 41°
2026-04-22 13:49 30.38046 107.05190 26404 ft 454 kts 40°
2026-04-22 13:50 30.40323 107.07808 26850 ft 459 kts 41°
2026-04-22 13:50 30.42618 107.10433 27217 ft 466 kts 41°
2026-04-22 13:50 30.44953 107.13115 27676 ft 471 kts 41°
2026-04-22 13:50 30.47359 107.15883 27663 ft 487 kts 41°
2026-04-22 13:51 30.49791 107.18671 27713 ft 500 kts 41°
2026-04-22 13:51 30.52314 107.21583 27999 ft 507 kts 41°
2026-04-22 13:51 30.54905 107.24417 28404 ft 508 kts 36°
2026-04-22 13:51 30.57728 107.26878 28778 ft 508 kts 30°
2026-04-22 13:52 30.60613 107.29308 29119 ft 514 kts 32°
2026-04-22 13:52 30.63524 107.31791 29492 ft 518 kts 32°
2026-04-22 13:52 30.66473 107.34319 29871 ft 521 kts 32°
2026-04-22 13:52 30.69400 107.36833 30236 ft 525 kts 32°
2026-04-22 13:53 30.72397 107.39406 30531 ft 530 kts 32°
2026-04-22 13:53 30.75369 107.41972 30923 ft 534 kts 32°
2026-04-22 13:53 30.81464 107.47230 31289 ft 546 kts 32°
2026-04-22 13:54 30.84535 107.49875 32220 ft 537 kts 31°
2026-04-22 13:54 30.87513 107.52464 33005 ft 531 kts 31°
2026-04-22 13:54 30.90492 107.55026 33521 ft 530 kts 31°
2026-04-22 13:54 30.93463 107.57601 33973 ft 530 kts 31°
2026-04-22 13:55 30.96329 107.60443 34392 ft 535 kts 38°
2026-04-22 13:55 30.98865 107.63664 34881 ft 539 kts 46°
2026-04-22 13:55 31.01105 107.67256 35154 ft 545 kts 54°
2026-04-22 13:55 31.02972 107.71134 35697 ft 544 kts 58°
2026-04-22 13:56 31.04781 107.74994 36089 ft 545 kts 60°
2026-04-22 13:56 31.06301 107.79093 36570 ft 547 kts 67°
2026-04-22 13:56 31.07409 107.83405 36895 ft 551 kts 75°
2026-04-22 13:56 31.08076 107.87839 37305 ft 552 kts 83°
2026-04-22 13:57 31.08300 107.92390 37688 ft 552 kts 90°
2026-04-22 13:57 31.08072 107.96883 38092 ft 551 kts 98°
2026-04-22 13:57 31.07404 108.01320 38324 ft 551 kts 106°
2026-04-22 13:57 31.06341 108.05669 38643 ft 551 kts 108°
2026-04-22 13:58 31.05531 108.10047 39019 ft 552 kts 99°
2026-04-22 13:58 31.05158 108.14552 39233 ft 554 kts 92°
2026-04-22 13:58 31.05249 108.19089 39706 ft 549 kts 84°
2026-04-22 13:58 31.05749 108.23520 40013 ft 547 kts 79°
2026-04-22 13:59 31.06108 108.28005 40347 ft 547 kts 87°
2026-04-22 13:59 31.06218 108.32491 40638 ft 547 kts 88°
2026-04-22 13:59 31.06283 108.36948 40985 ft 545 kts 89°
2026-04-22 13:59 31.06344 108.41351 41295 ft 543 kts 89°
2026-04-22 14:00 31.06409 108.45868 41571 ft 542 kts 89°
2026-04-22 14:00 31.06467 108.50275 41850 ft 541 kts 88°
2026-04-22 14:00 31.06522 108.54699 42045 ft 541 kts 88°
2026-04-22 14:00 31.06583 108.59123 42323 ft 540 kts 88°
2026-04-22 14:01 31.06631 108.63515 42558 ft 539 kts 88°
2026-04-22 14:01 31.06696 108.67966 42852 ft 536 kts 89°
2026-04-22 14:01 31.06744 108.72346 43072 ft 534 kts 89°
2026-04-22 14:01 31.06790 108.76675 43245 ft 534 kts 90°
2026-04-22 14:02 31.06834 108.81107 43368 ft 535 kts 89°
2026-04-22 14:02 31.06886 108.85475 43526 ft 534 kts 90°
2026-04-22 14:02 31.06975 108.94244 43753 ft 535 kts 89°
2026-04-22 14:03 31.07017 108.98589 43946 ft 534 kts 89°
2026-04-22 14:03 31.07057 109.02992 44117 ft 533 kts 89°
2026-04-22 14:03 31.07096 109.07333 44313 ft 532 kts 90°
2026-04-22 14:03 31.07130 109.11678 44518 ft 530 kts 89°
2026-04-22 14:04 31.07208 109.20374 44761 ft 530 kts 90°
2026-04-22 14:04 31.07241 109.24628 44896 ft 530 kts 90°
2026-04-22 14:04 31.07265 109.28955 44937 ft 532 kts 90°
2026-04-22 14:05 31.07325 109.37667 44956 ft 536 kts 90°
2026-04-22 14:06 31.07411 109.50729 44960 ft 535 kts 90°
2026-04-22 14:06 31.07443 109.59477 44971 ft 534 kts 90°
2026-04-22 14:07 31.07382 109.68148 44943 ft 533 kts 96°
2026-04-22 14:07 31.06010 109.76628 44928 ft 527 kts 111°
2026-04-22 14:08 31.03663 109.84728 44948 ft 524 kts 111°
2026-04-22 14:08 31.01358 109.92835 44948 ft 523 kts 111°
2026-04-22 14:09 30.99064 110.00874 44937 ft 522 kts 111°
2026-04-22 14:09 30.96765 110.08943 44961 ft 521 kts 111°
2026-04-22 14:10 30.94470 110.16962 44960 ft 520 kts 111°
2026-04-22 14:10 30.92163 110.25006 44974 ft 519 kts 112°
2026-04-22 14:11 30.89863 110.33000 44979 ft 518 kts 112°
2026-04-22 14:11 30.87589 110.40851 44959 ft 505 kts 111°
2026-04-22 14:11 30.86478 110.44717 44950 ft 493 kts 111°
2026-04-22 14:12 30.85402 110.48442 44938 ft 483 kts 112°
2026-04-22 14:12 30.83271 110.55780 44946 ft 469 kts 112°
2026-04-22 14:13 30.81211 110.62861 44939 ft 455 kts 112°
2026-04-22 14:13 30.79200 110.69784 44920 ft 441 kts 114°
2026-04-22 14:14 30.77252 110.76437 44927 ft 426 kts 113°
2026-04-22 14:14 30.75382 110.82867 44931 ft 411 kts 114°
2026-04-22 14:15 30.73569 110.89041 44927 ft 396 kts 114°
2026-04-22 14:15 30.71808 110.95006 44913 ft 379 kts 114°
2026-04-22 14:16 30.70151 111.00664 44920 ft 361 kts 115°
2026-04-22 14:16 30.68562 111.06087 44874 ft 344 kts 114°
2026-04-22 14:16 30.67837 111.08743 44641 ft 345 kts 112°
2026-04-22 14:17 30.67196 111.11444 44266 ft 353 kts 107°
2026-04-22 14:17 30.66670 111.14234 44012 ft 355 kts 103°
2026-04-22 14:17 30.66370 111.17079 43870 ft 352 kts 92°
2026-04-22 14:17 30.66434 111.19938 43617 ft 352 kts 79°
2026-04-22 14:18 30.66979 111.22679 43181 ft 354 kts 62°
2026-04-22 14:18 30.68114 111.25198 42915 ft 342 kts 41°
2026-04-22 14:18 30.69726 111.27076 42845 ft 316 kts 18°
2026-04-22 14:18 30.71647 111.28217 42615 ft 315 kts 23°
2026-04-22 14:19 30.73465 111.30002 42380 ft 355 kts 44°
2026-04-22 14:19 30.74713 111.32530 42655 ft 366 kts 61°
2026-04-22 14:19 30.75574 111.35426 42126 ft 397 kts 83°
2026-04-22 14:19 30.75516 111.38719 41856 ft 405 kts 103°
2026-04-22 14:20 30.74348 111.44701 42719 ft 385 kts 102°
2026-04-22 14:20 30.73299 111.50854 42704 ft 390 kts 112°
2026-04-22 14:21 30.70849 111.56271 42942 ft 376 kts 133°
2026-04-22 14:21 30.69405 111.58904 42951 ft 387 kts 123°
2026-04-22 14:22 30.67244 111.64815 43059 ft 403 kts 111°
2026-04-22 14:22 30.66551 111.67994 43063 ft 411 kts 101°
2026-04-22 14:22 30.66571 111.74739 43166 ft 420 kts 85°
2026-04-22 14:23 30.66782 111.78149 43175 ft 426 kts 86°
2026-04-22 14:23 30.67140 111.85090 43215 ft 437 kts 86°
2026-04-22 14:24 30.67492 111.92281 43271 ft 449 kts 86°
2026-04-22 14:24 30.67923 111.99625 43328 ft 462 kts 84°
2026-04-22 14:25 30.68456 112.07230 43354 ft 474 kts 85°
2026-04-22 14:25 30.68713 112.11065 43511 ft 477 kts 84°
2026-04-22 14:25 30.68981 112.14927 43724 ft 478 kts 85°
2026-04-22 14:25 30.69242 112.18738 44107 ft 476 kts 85°
2026-04-22 14:26 30.69505 112.22633 44241 ft 479 kts 86°
2026-04-22 14:26 30.70023 112.30493 44277 ft 491 kts 85°
2026-04-22 14:27 30.70561 112.38504 44319 ft 502 kts 86°
2026-04-22 14:27 30.71093 112.46732 44413 ft 513 kts 86°
2026-04-22 14:28 30.71649 112.55093 44477 ft 524 kts 86°
2026-04-22 14:28 30.72192 112.63641 44720 ft 530 kts 87°
2026-04-22 14:28 30.72474 112.67969 44925 ft 532 kts 88°
2026-04-22 14:29 30.72756 112.72340 44942 ft 537 kts 88°
2026-04-22 14:29 30.73306 112.81169 44938 ft 548 kts 87°
2026-04-22 14:30 30.73865 112.90087 44914 ft 559 kts 88°
2026-04-22 14:30 30.74425 112.99223 44942 ft 564 kts 88°
2026-04-22 14:31 30.74986 113.08425 44937 ft 568 kts 88°
2026-04-22 14:31 30.75465 113.17644 44922 ft 568 kts 91°
2026-04-22 14:32 30.75666 113.26859 44953 ft 570 kts 90°
2026-04-22 14:32 30.75908 113.36167 44952 ft 571 kts 90°
2026-04-22 14:33 30.76138 113.45461 44926 ft 573 kts 90°
2026-04-22 14:33 30.76364 113.54801 44939 ft 574 kts 90°
2026-04-22 14:34 30.76582 113.64219 44948 ft 579 kts 90°
2026-04-22 14:34 30.76800 113.73656 44949 ft 582 kts 90°
2026-04-22 14:35 30.77006 113.83157 44925 ft 584 kts 90°
2026-04-22 14:35 30.77206 113.92664 44927 ft 585 kts 90°
2026-04-22 14:36 30.77407 114.02191 44935 ft 586 kts 89°
2026-04-22 14:36 30.77816 114.11734 44917 ft 586 kts 88°
2026-04-22 14:37 30.78768 114.21235 44940 ft 586 kts 77°
2026-04-22 14:37 30.81296 114.30295 44941 ft 584 kts 64°
2026-04-22 14:38 30.84321 114.39128 44932 ft 586 kts 67°
2026-04-22 14:38 30.87228 114.48109 44927 ft 586 kts 68°
2026-04-22 14:39 30.90138 114.57071 44948 ft 586 kts 67°
2026-04-22 14:39 30.93050 114.66058 44932 ft 587 kts 68°
2026-04-22 14:40 30.97393 114.79495 44922 ft 586 kts 68°
2026-04-22 14:40 31.00259 114.88407 44921 ft 586 kts 68°
2026-04-22 14:41 31.03152 114.97425 44920 ft 585 kts 68°
2026-04-22 14:41 31.06020 115.06392 44923 ft 585 kts 68°
2026-04-22 14:42 31.08898 115.15393 44914 ft 586 kts 68°
2026-04-22 14:42 31.11751 115.24392 44913 ft 586 kts 68°
2026-04-22 14:43 31.14602 115.33302 44902 ft 576 kts 68°
2026-04-22 14:43 31.17419 115.41981 44893 ft 548 kts 68°
2026-04-22 14:44 31.18732 115.46069 44879 ft 528 kts 68°
2026-04-22 14:44 31.20056 115.50153 44903 ft 527 kts 68°
2026-04-22 14:44 31.22648 115.58192 44920 ft 528 kts 68°
2026-04-22 14:45 31.25270 115.66355 44896 ft 530 kts 68°
2026-04-22 14:45 31.27874 115.74469 44894 ft 529 kts 69°
2026-04-22 14:46 31.30466 115.82598 44893 ft 530 kts 68°
2026-04-22 14:46 31.33086 115.90750 44901 ft 529 kts 68°
2026-04-22 14:47 31.35740 115.98882 44894 ft 529 kts 68°
2026-04-22 14:47 31.38381 116.06981 44915 ft 529 kts 68°
2026-04-22 14:48 31.41003 116.15057 44907 ft 529 kts 68°
2026-04-22 14:48 31.43627 116.23169 44924 ft 529 kts 68°
2026-04-22 14:49 31.46274 116.31346 44912 ft 530 kts 68°
2026-04-22 14:49 31.48880 116.39446 44921 ft 530 kts 68°
2026-04-22 14:50 31.51496 116.47585 44924 ft 531 kts 68°
2026-04-22 14:50 31.54130 116.55799 44932 ft 531 kts 68°
2026-04-22 14:51 31.56753 116.64011 44911 ft 533 kts 67°
2026-04-22 14:51 31.59387 116.72243 44904 ft 532 kts 67°
2026-04-22 14:52 31.61990 116.80458 44898 ft 532 kts 68°
2026-04-22 14:52 31.64608 116.88665 44911 ft 532 kts 68°
2026-04-22 14:53 31.67190 116.96841 44896 ft 532 kts 68°
2026-04-22 14:53 31.69766 117.05080 44909 ft 533 kts 68°
2026-04-22 14:54 31.72314 117.13339 44897 ft 533 kts 68°
2026-04-22 14:54 31.74857 117.21588 44912 ft 533 kts 69°
2026-04-22 14:55 31.76877 117.30067 44909 ft 534 kts 82°
2026-04-22 14:55 31.77265 117.38789 44911 ft 531 kts 97°
2026-04-22 14:56 31.76342 117.47473 44906 ft 530 kts 98°
2026-04-22 14:56 31.75708 117.56168 44901 ft 532 kts 97°
2026-04-22 14:57 31.75091 117.64970 44908 ft 537 kts 97°
2026-04-22 14:57 31.74453 117.73927 44900 ft 549 kts 97°
2026-04-22 14:58 31.73810 117.83037 44902 ft 561 kts 97°
2026-04-22 14:58 31.73129 117.92342 44879 ft 572 kts 97°
2026-04-22 14:59 31.72434 118.01790 44892 ft 583 kts 97°
2026-04-22 14:59 31.71728 118.11471 44887 ft 592 kts 97°
2026-04-22 15:00 31.71055 118.21233 44887 ft 596 kts 97°
2026-04-22 15:00 31.70362 118.31098 44871 ft 598 kts 96°
2026-04-22 15:01 31.69667 118.40937 44889 ft 598 kts 97°
2026-04-22 15:01 31.68965 118.50738 44890 ft 599 kts 96°
2026-04-22 15:02 31.68251 118.60605 44917 ft 590 kts 97°
2026-04-22 15:02 31.67574 118.70026 44681 ft 555 kts 97°
2026-04-22 15:03 31.67244 118.74501 43726 ft 542 kts 98°
2026-04-22 15:03 31.66901 118.78918 42352 ft 539 kts 98°
2026-04-22 15:03 31.66579 118.83346 41136 ft 530 kts 97°
2026-04-22 15:03 31.66255 118.87633 40346 ft 522 kts 96°
2026-04-22 15:04 31.65939 118.91859 39718 ft 512 kts 97°
2026-04-22 15:04 31.65627 118.96064 39029 ft 503 kts 96°
2026-04-22 15:04 31.65322 119.00120 38408 ft 492 kts 97°
2026-04-22 15:04 31.65023 119.04110 37765 ft 484 kts 96°
2026-04-22 15:05 31.64819 119.08079 37123 ft 477 kts 94°
2026-04-22 15:05 31.64620 119.11937 36441 ft 471 kts 95°
2026-04-22 15:05 31.64437 119.15815 35717 ft 482 kts 95°
2026-04-22 15:05 31.64260 119.19829 35033 ft 504 kts 95°
2026-04-22 15:06 31.64059 119.24059 34384 ft 523 kts 95°
2026-04-22 15:06 31.63870 119.28377 33755 ft 539 kts 94°
2026-04-22 15:06 31.63667 119.32848 33104 ft 555 kts 94°
2026-04-22 15:06 31.63455 119.37445 32668 ft 554 kts 94°
2026-04-22 15:07 31.63251 119.41902 32127 ft 543 kts 95°
2026-04-22 15:07 31.63041 119.46315 31214 ft 532 kts 94°
2026-04-22 15:07 31.62843 119.50484 30525 ft 498 kts 94°
2026-04-22 15:07 31.62651 119.54466 29896 ft 477 kts 94°
2026-04-22 15:08 31.62467 119.58262 29267 ft 458 kts 94°
2026-04-22 15:08 31.62291 119.61965 28655 ft 451 kts 94°
2026-04-22 15:08 31.62107 119.65692 27949 ft 455 kts 95°
2026-04-22 15:08 31.61931 119.69418 27240 ft 457 kts 94°
2026-04-22 15:09 31.61762 119.73132 26628 ft 456 kts 95°
2026-04-22 15:09 31.61594 119.76858 26065 ft 454 kts 95°
2026-04-22 15:09 31.61422 119.80563 25509 ft 446 kts 94°
2026-04-22 15:09 31.61256 119.84167 24923 ft 440 kts 95°
2026-04-22 15:10 31.61087 119.87744 24287 ft 435 kts 94°
2026-04-22 15:10 31.60921 119.91267 23636 ft 434 kts 95°
2026-04-22 15:10 31.60757 119.94810 22959 ft 436 kts 95°
2026-04-22 15:10 31.60585 119.98375 22308 ft 436 kts 94°
2026-04-22 15:11 31.60415 120.01894 21659 ft 431 kts 94°
2026-04-22 15:11 31.60248 120.05357 21006 ft 415 kts 94°
2026-04-22 15:11 31.60091 120.08691 20404 ft 401 kts 94°
2026-04-22 15:11 31.59934 120.11926 19802 ft 392 kts 94°
2026-04-22 15:12 31.59778 120.15079 19208 ft 383 kts 94°
2026-04-22 15:12 31.59629 120.18150 18633 ft 375 kts 94°
2026-04-22 15:12 31.59478 120.21164 18068 ft 367 kts 94°
2026-04-22 15:12 31.59334 120.24138 17502 ft 360 kts 94°
2026-04-22 15:13 31.59192 120.27042 16965 ft 352 kts 94°
2026-04-22 15:13 31.59048 120.29868 16437 ft 345 kts 94°
2026-04-22 15:13 31.58743 120.32642 15905 ft 335 kts 109°
2026-04-22 15:13 31.57999 120.35141 15643 ft 323 kts 111°
2026-04-22 15:14 31.57244 120.37667 15356 ft 333 kts 111°
2026-04-22 15:14 31.56452 120.40314 15081 ft 360 kts 111°
2026-04-22 15:14 31.55590 120.43199 14747 ft 380 kts 110°
2026-04-22 15:14 31.54714 120.46143 14399 ft 377 kts 111°
2026-04-22 15:15 31.53857 120.49023 14023 ft 367 kts 110°
2026-04-22 15:15 31.53026 120.51805 13682 ft 357 kts 110°
2026-04-22 15:15 31.52216 120.54514 13343 ft 349 kts 110°
2026-04-22 15:15 31.51422 120.57168 13014 ft 341 kts 110°
2026-04-22 15:16 31.50643 120.59764 12697 ft 334 kts 110°
2026-04-22 15:16 31.49880 120.62315 12391 ft 328 kts 110°
2026-04-22 15:16 31.49119 120.64845 12078 ft 328 kts 110°
2026-04-22 15:16 31.48383 120.67310 11776 ft 315 kts 110°
2026-04-22 15:17 31.47666 120.69692 11479 ft 304 kts 110°
2026-04-22 15:17 31.46969 120.72012 11198 ft 302 kts 110°
2026-04-22 15:17 31.46263 120.74351 10919 ft 304 kts 110°
2026-04-22 15:17 31.45564 120.76682 10633 ft 302 kts 110°
2026-04-22 15:18 31.44865 120.79005 10361 ft 301 kts 110°
2026-04-22 15:18 31.44174 120.81290 10194 ft 295 kts 110°
2026-04-22 15:18 31.43494 120.83549 10090 ft 289 kts 110°
2026-04-22 15:18 31.42834 120.85738 9984 ft 283 kts 110°
2026-04-22 15:19 31.42172 120.87932 9718 ft 287 kts 110°
2026-04-22 15:19 31.41492 120.90176 9466 ft 294 kts 110°
2026-04-22 15:19 31.40809 120.92436 9205 ft 300 kts 109°
2026-04-22 15:19 31.40103 120.94769 8937 ft 299 kts 109°
2026-04-22 15:20 31.39653 120.96254 8913 ft 285 kts 109°
2026-04-22 15:20 31.38798 120.99074 8857 ft 271 kts 110°
2026-04-22 15:20 31.38163 121.01160 8848 ft 269 kts 110°
2026-04-22 15:20 31.37534 121.03216 8854 ft 267 kts 109°
2026-04-22 15:21 31.36916 121.05249 8850 ft 266 kts 109°
2026-04-22 15:21 31.36295 121.07301 8839 ft 265 kts 110°
2026-04-22 15:21 31.35676 121.09329 8836 ft 264 kts 110°
2026-04-22 15:21 31.35055 121.11362 8830 ft 263 kts 110°
2026-04-22 15:22 31.34435 121.13353 8827 ft 262 kts 110°
2026-04-22 15:22 31.33796 121.15407 8844 ft 276 kts 110°
2026-04-22 15:22 31.33122 121.17577 8854 ft 292 kts 110°
2026-04-22 15:22 31.32382 121.19836 8859 ft 305 kts 117°
2026-04-22 15:23 31.30962 121.21703 8865 ft 313 kts 149°
2026-04-22 15:23 31.28919 121.22546 8874 ft 316 kts 178°
2026-04-22 15:23 31.26703 121.22410 8932 ft 322 kts 184°
2026-04-22 15:23 31.24417 121.22517 8961 ft 331 kts 179°
2026-04-22 15:24 31.22096 121.22620 8972 ft 338 kts 179°
2026-04-22 15:24 31.19783 121.22762 8650 ft 313 kts 180°
2026-04-22 15:24 31.17688 121.22864 7970 ft 293 kts 179°
2026-04-22 15:24 31.15711 121.22972 7310 ft 279 kts 178°
2026-04-22 15:25 31.13802 121.23074 6577 ft 273 kts 177°
2026-04-22 15:25 31.11910 121.23180 6029 ft 272 kts 177°
2026-04-22 15:25 31.10017 121.23288 5480 ft 270 kts 177°
2026-04-22 15:25 31.08156 121.23392 4945 ft 268 kts 177°
2026-04-22 15:26 31.06306 121.23493 4374 ft 268 kts 177°
2026-04-22 15:26 31.04434 121.23595 3834 ft 267 kts 176°
2026-04-22 15:26 31.02686 121.24108 3277 ft 263 kts 146°
2026-04-22 15:26 31.01538 121.25648 2969 ft 243 kts 110°
2026-04-22 15:27 31.01317 121.27502 2727 ft 225 kts 84°
2026-04-22 15:27 31.01377 121.29316 2387 ft 221 kts 84°
2026-04-22 15:27 31.01436 121.31055 2146 ft 212 kts 83°
2026-04-22 15:27 31.01530 121.32728 1978 ft 198 kts 74°
2026-04-22 15:28 31.02208 121.33961 1959 ft 171 kts 30°
2026-04-22 15:28 31.03284 121.34312 1985 ft 163 kts
2026-04-22 15:28 31.04419 121.34348 1961 ft 160 kts
2026-04-22 15:28 31.05519 121.34344 1976 ft 159 kts
2026-04-22 15:29 31.06619 121.34309 1976 ft 151 kts 359°
2026-04-22 15:29 31.07681 121.34261 2000 ft 145 kts 360°
2026-04-22 15:29 31.08685 121.34212 1895 ft 146 kts 360°
2026-04-22 15:30 31.10621 121.34108 1516 ft 131 kts
2026-04-22 15:30 31.11547 121.34062 1367 ft 137 kts
2026-04-22 15:30 31.12505 121.34013 1189 ft 136 kts 360°
2026-04-22 15:30 31.13459 121.33962 1003 ft 136 kts 360°
2026-04-22 15:31 31.14423 121.33911 826 ft 139 kts 360°
2026-04-22 15:31 31.15392 121.33855 634 ft 136 kts 359°
2026-04-22 15:31 31.16325 121.33808 442 ft 133 kts 359°
2026-04-22 15:31 31.17264 121.33751 261 ft 136 kts 359°
2026-04-22 15:32 31.18214 121.33702 89 ft 135 kts 360°
2026-04-22 15:32 31.19124 121.33663 19 ft 118 kts
2026-04-22 15:32 31.19788 121.33631 19 ft 70 kts 357°
2026-04-22 15:32 31.20092 121.33668 19 ft 32 kts 24°
2026-04-22 15:33 31.20250 121.33763 19 ft 11 kts 24°
2026-04-22 15:33 31.20301 121.33807 19 ft 9 kts 67°
2026-04-22 15:33 31.20266 121.33856 19 ft 9 kts 166°
2026-04-22 15:33 31.20200 121.33862 19 ft 9 kts 178°
2026-04-22 15:34 31.20128 121.33867 19 ft 10 kts 176°
2026-04-22 15:34 31.20050 121.33871 19 ft 11 kts 176°
2026-04-22 15:34 31.19969 121.33875 19 ft 12 kts 177°
2026-04-22 15:34 31.19882 121.33880 19 ft 12 kts 177°
2026-04-22 15:35 31.19821 121.33883 19 ft 13 kts 177°
2026-04-22 15:35 31.19691 121.33889 19 ft 14 kts 177°
2026-04-22 15:35 31.19587 121.33895 19 ft 15 kts 177°
2026-04-22 15:35 31.19477 121.33903 19 ft 15 kts 176°
2026-04-22 15:36 31.19365 121.33910 19 ft 15 kts 180°
2026-04-22 15:36 31.19255 121.33913 19 ft 16 kts 175°
2026-04-22 15:36 31.19138 121.33919 19 ft 16 kts 177°
2026-04-22 15:36 31.19059 121.33941 19 ft 6 kts 119°
2026-04-22 15:37 31.19053 121.33996 19 ft 7 kts 112°
2026-04-22 15:37 31.19017 121.34013 19 ft 3 kts 156°
2026-04-22 15:37 31.18996 121.34036 19 ft 4 kts 116°
2026-04-22 15:37 31.18995 121.34073 19 ft 4 kts 85°
2026-04-22 15:38 31.18996 121.34094 19 ft 1 kts 87°
2026-04-22 15:38 31.18997 121.34119 19 ft 0 kts 87°
2026-04-22 15:38 31.18997 121.34121 19 ft 0 kts 87°